STARLINK-2741, 48684

Orbit data source: Space-Track

STARLINK-2741, 48684 is a payload satellite owned by SpaceX/Seattle (US) in LEO that was launched on Wed, 26 May 2021 UTC via an FALCON 9 launch vehicle from the Air Force Eastern Test Range (AFETR). Payload-class satellites include a variety of spacecraft equipped with specific instruments for various scientific and technological missions. These include communications satellites like Starlink; space stations such as the ISS; scientific satellites like the Hubble; Earth observation satellites from companies like Planet Labs, Umbra, and HawkEye 360; GPS; miniature CubeSats for education and research; and military/defense satellites.

Loading next visibility...
Identifier
48684, 2021-044AY
Orbit
LEO
Country
Flag of USUS
Related business
Manufacturer
SpaceX/Seattle
Mission
Operational Commercial Communications
Bus & Motor
STARLINK, Unknown motor
Mass
260 kg wet, ~248 kg dry
Launch date (UTC)
2021-05-26 (5 years ago)
Launch vehicle
FALCON 9
Launch site
Air Force Eastern Test Range (AFETR)
Object type
Payload
Rocket body
Debris
Shape & HBR
Box + 1 Pan, 10.1 m
Radar Cross Section
13.562 m², Large (>1 m²)

Expand to show TLE details & history
Last TLE update: 1 day ago

TLE from 1 day ago
0 STARLINK-2741
1 48684U 21044AY  25348.57638346  .00001602  00000-0  12643-3 0  9993
2 48684  53.0557 109.0642 0001305  83.1552 276.9586 15.06395757251360
Epoch: 2025-12-14T13:49Z
TLE epoch observation values (Epoch: 2025-12-14T13:49:59.530Z)
Latitude
Longitude
178.07884°
Altitude
547.994 km
Speed
7.589 km/s
True Right ascension
07h 16m 15s
True Declination
0° 00' 00"
Sunlit
Object was in full shadow at epoch
Visualization orbit readout
Latitude
Unknown
Longitude
Unknown
Altitude
Unknown
Speed
Unknown
Apparent Right ascension
Unknown
Apparent Declination
Unknown
Sunlit
N/A
Visualization observer readout
Local Sidereal Time
23:01:59
Azimuth
Unknown
Elevation
Unknown
Doppler factor
Unknown
Orbital elements
Apogee altitude
548.399 km
Perigee altitude
546.591 km
Semi-major axis
6,925.632 km
Eccentricity
0.00013
Inclination
53.0557°
RAAN
109.0642°
Arg. of periapsis
83.1552°
True anomaly
276.94376°
Mean anomaly
276.9586°
Eccentric anomaly
276.95118°
Mean motion
3.76577 °/min
Orbital period
95.6 mins
BSTAR
0.00012643
Loading maneuver chart data...
Computing Atmospheric mass density...
Loading historical data...
Loading historical data...
Loading historical data...
Loading historical data...
Loading historical data...
Loading historical data...
Loading historical data...

Documentation

Showing up to 5 results
|